User: anonymous   Login
Location: Lawrence
(38.9720°N, 95.2350°W)
Time: 01:56:57
(UTC-05:00)
Language:

JAS-1B - Orbit

View from above orbital plane
View from above orbital plane
View from above satellite
View from above satellite

Ground track
Ground track

The orbit data is extracted from the following two-line orbital elements,

1 20480U 90013C   17118.35631762 -.00000019 +00000-0 +22222-4 0  9993
2 20480 099.0461 260.8763 0540907 143.7964 220.1045 12.83416000275289
Epoch (UTC): 28 April 2017 08:33:05
Eccentricity: 0.0540907
inclination: 99.0461°
perigee height: 911 km
apogee height: 1744 km
right ascension of ascending node: 260.8763°
argument of perigee: 143.7964°
revolutions per day: 12.83416000
mean anomaly at epoch: 220.1045°
orbit number at epoch: 27528

The dashed part of the orbit path shows where the satellite is in the earth's shadow,  

DLR